Terminal Aerodrome Forecast
Issued by NWS

Home | Current Version | Previous Version | Text Only | Print | Product List | Glossary On
Versions: 1 2 3 4 5 6 7 8 9 10 11 12 13 14 15 16
000
FTUS44 KCRP 231100
TAFLRD
TAF
KLRD 231128Z 2312/2412 04006KT P6SM BKN080
      TEMPO 2312/2314 5SM BR SCT035 OVC080
     FM231600 06008KT P6SM SCT040 OVC100
     FM232100 09012KT P6SM SCT150=

USA.gov is the U.S. government's official web portal to all federal, state and local government web resources and services.